Location: ??
(38.5525°N, 106.3780°E)
Time: 12:04:54
(UTC+00:00)

Daily predictions for brighter satellites

Satellite Brightness Start Highest point End
(mag) Time Altitude Azimuth Time Altitude Azimuth Time Altitude Azimuth
Hubble Space Telescope 3.6 12:05:28 10° SSW 12:05:47 11° SSW 12:05:47 11° SSW
Cosmos 1656 Rocket 4.1 12:05:10 10° NNW 12:10:40 58° WSW 12:12:29 39° SSW
USA 267 3.9 12:12:07 41° N 12:12:07 41° N 12:17:01 10° NW
Cosmos 1934 Rocket 4.0 12:05:04 10° N 12:11:26 79° W 12:17:41 10° S
CZ-2C R/B 4.2 12:10:04 10° SSW 12:14:47 39° W 12:19:20 10° NNW
ATLAS 3B R/B 4.4 12:13:58 10° S 12:15:32 17° S 12:15:32 17° S
NOSS 3-3 (A) 4.5 12:16:13 10° NW 12:23:59 86° WSW 12:25:17 67° SSE
NOSS 3-3 (C) 4.5 12:16:18 10° NW 12:24:05 86° WSW 12:25:18 69° SSE
H-2A R/B 3.8 12:25:48 10° S 12:33:25 26° NW 12:35:48 10° NNW
CENTAUR R/B 3.6 12:41:04 10° WSW 12:46:02 39° WNW 12:46:02 39° WNW
CENTAUR R/B 3.6 20:22:33 57° ESE 20:22:33 57° ESE 20:29:27 10° SE
Milstar 3 Cent rocket 4.0 20:30:24 33° SE 20:30:24 33° SE 20:37:09 10° ESE
ATLAS 2AS CENTAUR R/B 3.3 20:46:24 57° NNE 20:46:24 57° NNE 20:52:27 10° NNE
Lacrosse 5 4.2 21:02:14 15° NNE 21:02:14 15° NNE 21:03:13 10° NNE
FENGYUN 3A 3.8 21:16:06 10° NNE 21:21:31 71° ESE 21:26:52 10° S
Atlas Centaur 2 3.2 21:25:19 40° SSW 21:26:16 42° S 21:32:00 10° ESE
Lacrosse 4 Rocket 3.4 21:29:09 22° SSE 21:29:09 22° SSE 21:30:47 10° SSE
Cosmos 1680 Rocket 3.6 21:34:50 51° N 21:36:07 74° ENE 21:41:24 10° SSE
Cosmos 1782 3.4 21:39:10 54° SE 21:39:10 54° SE 21:42:32 10° SSE
Gbstr 26 Del rocket 3.6 21:40:23 43° ENE 21:40:23 43° ENE 21:43:34 10° ESE
COSMOS 2455 3.8 21:34:55 10° S 21:40:38 48° ESE 21:46:25 10° NE
Cosmos 1743 Rocket 4.5 21:39:02 10° SSE 21:43:19 48° E 21:47:38 10° NNE
ATLAS 3B R/B 3.0 21:40:09 29° NNW 21:43:58 70° NE 21:51:12 10° SE
Cosmos 2181 Rocket 3.8 21:40:44 21° N 21:45:03 79° W 21:51:09 10° S
Meteor 1-26 Rocket 4.0 21:43:28 45° NNW 21:45:15 77° W 21:50:45 10° S
METEOR-M 4.0 21:46:33 10° N 21:51:55 78° WNW 21:57:14 10° SSW
COSMO-SKYMED 1 3.4 21:48:15 10° SSE 21:52:26 49° ENE 21:56:10 13° N
Cosmos 2112 Rocket 3.9 21:54:25 35° NNW 21:56:48 85° WSW 22:02:07 10° SSE
Meteor 2-3 Rocket 4.5 22:00:12 34° NW 22:00:12 34° NW 22:03:57 10° N
Cosmos 1898 Rocket 3.6 22:00:00 47° W 22:00:50 52° WNW 22:06:04 10° N
RESURS DK-1 4.5 22:03:56 15° N 22:03:56 15° N 22:04:47 10° N
Meteor 2-17 Rocket 4.4 21:58:10 10° SSW 22:04:03 55° W 22:10:01 10° N
CZ-4C R/B 2.9 22:05:09 32° NNW 22:05:09 32° NNW 22:09:46 10° NNE
ADEOS 3.7 22:02:11 10° N 22:07:13 50° WNW 22:12:14 10° SW
Cosmos 2074 Rocket 3.8 22:01:17 10° S 22:07:29 78° W 22:13:43 10° N
CENTAUR R/B 4.0 22:09:49 27° W 22:10:51 27° WSW 22:17:54 10° SSW
SJ-12 3.7 22:08:01 10° N 22:12:04 72° WNW 22:16:06 10° SSW
GPS 2-04 Rocket1 3.4 22:12:22 36° SW 22:13:08 40° SSW 22:16:48 10° SE
Cosmos 1937 Rocket 3.5 22:08:34 10° SSW 22:13:36 54° WNW 22:18:42 10° N
deb Chang Zheng 4 3.6 22:10:44 10° N 22:14:58 53° WNW 22:19:12 10° SSW
SKYMED 3 4.5 22:12:04 10° SSE 22:16:24 87° WSW 22:20:27 12° NNW
ATLAS CENTAUR R/B 1.0 22:16:17 43° NW 22:17:27 80° WSW 22:21:29 10° SSE
Cosmos 1844 Rocket 3.0 22:16:23 16° SW 22:20:37 43° WNW 22:26:02 10° N
USA 234 4.4 22:20:06 10° ENE 22:26:17 44° SE 22:32:27 10° SSW
Cosmos 2184 Rocket 4.1 22:21:59 10° SSW 22:28:09 55° W 22:34:25 10° N
ERS-2 3.0 22:28:29 10° SSW 22:31:35 29° WSW 22:31:35 29° WSW
ATLAS 2AS CENTAUR R/B 4.1 22:33:53 20° WNW 22:36:36 24° NW 22:42:42 10° NNE
Cosmos 1515 Rocket 4.3 22:35:12 21° NW 22:37:21 33° W 22:41:20 10° SSW
OAO 2 Rocket 4.1 22:35:21 19° WSW 22:38:25 40° SSW 22:43:10 10° SE
SKYMED 2 3.9 22:36:20 10° S 22:40:29 45° W 22:44:40 10° NNW
Cosmos 405 Rocket 3.1 22:37:20 10° SSW 22:40:47 37° WNW 22:44:18 10° N
CZ-2C R/B 2.9 22:38:30 10° SW 22:41:08 22° SSE 22:43:43 10° ESE
Cosmos 2150 Rocket 4.4 22:35:58 10° S 22:41:15 70° ESE 22:46:29 10° NNE
Lacrosse 5 3.7 22:41:27 13° NNW 22:42:26 14° NNW 22:45:00 10° N
Cosmos 2298 Rocket 4.2 22:37:37 10° SSW 22:42:54 79° ESE 22:48:12 10° NNE
Cosmos 1844 4.2 22:38:22 10° SW 22:43:23 35° WNW 22:48:29 10° N
ATLAS 5 CENTAUR R/B 1.2 22:42:07 10° SSW 22:46:02 86° WNW 22:50:21 10° NNE
Cosmos 1862 4.0 22:42:59 10° SW 22:46:38 32° WNW 22:50:19 10° NNW
Cosmos 1812 2.9 22:43:18 10° NNW 22:47:00 48° W 22:50:42 10° SSW
Cosmos 2228 Rocket 3.2 22:46:47 10° NNW 22:51:03 50° W 22:55:16 10° SSW
SJ-7 4.3 22:47:17 10° N 22:51:23 76° WNW 22:55:30 10° SSW
CZ-2C R/B 4.2 22:46:53 10° SE 22:51:48 35° ENE 22:56:38 10° N
Cosmos 1707 Rocket 4.1 22:49:46 10° N 22:54:03 60° E 22:58:18 10° SSE
Meteor PRIRODA 4.4 22:50:58 10° N 22:54:15 30° WNW 22:57:31 10° SW
PSLV R/B 3.6 22:52:07 10° N 22:55:54 68° WNW 22:59:35 10° SSW
CZ-4B DEB 4.3 22:50:29 10° NNE 22:55:59 84° ESE 23:01:28 10° SSW
CZ-4B R/B 3.9 22:55:58 10° N 22:59:46 28° WNW 23:03:25 10° SW
H-2A R/B 2.2 22:59:19 10° NNE 23:03:09 88° WNW 23:06:59 10° SSW
Meteor 2-12 Rocket 4.4 22:57:32 10° SSW 23:03:40 76° W 23:09:50 10° N
Cosmos 2218 Rocket 4.5 23:02:49 10° S 23:09:02 68° E 23:15:11 10° NNE
PAYLOAD B 4.3 23:04:18 10° NNE 23:09:49 90° NW 23:15:19 10° SSW
Cosmos 1689 Rocket 3.7 23:08:17 10° SW 23:10:13 17° W 23:11:53 11° WNW
Sich 1 3.3 23:06:11 10° SSW 23:10:26 47° W 23:14:44 10° N
Nadezhda 3 Rocket 4.3 23:05:39 10° NNW 23:11:35 46° W 23:17:27 10° SSW
SL-4 R/B 3.8 23:10:12 10° NNW 23:12:59 19° NNE 23:15:38 10° ENE
Atlas Centaur 2 3.6 23:09:17 10° WSW 23:14:51 29° SSW 23:19:25 10° SE
H-2A R/B 3.6 23:12:03 10° NNW 23:15:25 28° WNW 23:18:45 10° SW
Cosmos 2082 Rocket 3.7 23:14:21 10° N 23:19:32 34° ENE 23:24:40 10° SE
Okean O Rocket 1.8 23:16:21 10° NNE 23:20:50 80° ESE 23:25:16 10° S
CZ-4B R/B 3.3 23:17:23 10° NNE 23:22:48 84° ESE 23:28:17 10° SSW
Cosmos 1833 Rocket 3.1 23:18:07 10° NNW 23:23:44 66° ENE 23:29:17 10° SSE
Cosmos 1356 4.1 23:21:06 10° SW 23:24:11 31° WNW 23:27:17 10° NNW
USA 305 4.4 23:21:29 10° NNW 23:25:15 29° NNE 23:29:00 10° E
MOS 1 Rocket 3.9 23:20:47 10° SSW 23:25:18 40° W 23:30:07 10° NNW
COSMOS 2455 3.7 23:21:40 10° WSW 23:26:47 28° NW 23:31:56 10° N
